Location: Ailly
(50.0793°N, 1.9944°E)
Time: 00:45:20
(UTC+00:00)

Cosmos 1953 - Pass Details

Date: 15 January 2026
Orbit: 475 x 489 km, 82.5° (Epoch: 6 February)

Event Time Altitude Azimuth Distance (km) Brightness Sun altitude
Rises 06:10:56 0° 164° (SSE) 2,534 6.2 -14.6°
Reaches altitude 10° 06:13:10 10° 154° (SSE) 1,663 5.4 -14.2°
Maximum altitude 06:16:23 30° 91° (E) 893 4.2 -13.7°
Drops below altitude 10° 06:19:39 10° 29° (NNE) 1,686 5.0 -13.2°
Sets 06:21:55 0° 19° (NNE) 2,576 5.8 -12.9°
